Jacksonville, IL

5:05 AM CST on December 09, 2019 (GMT -0600)
Jacksonville Municipal

Weather History for KIJX - November, 2019

Change the Weather History Date:

Monday, November 11, 2019

  Actual Average (WUND) Record (WUND)
Temperature  
Mean Temperature 24 °F -  
Max Temperature 37 °F - - (-1)
Min Temperature 12 °F - - (-1)
Degree Days  
Heating Degree Days 40    
Moisture  
Dew Point 21 °F    
Average Humidity 83    
Maximum Humidity 97    
Minimum Humidity 63    
Precipitation  
Precipitation 0.00 in - - ()
Sea Level Pressure  
Sea Level Pressure 30.30 in    
Wind  
Wind Speed 13 mph ()    
Max Wind Speed 26 mph    
Max Gust Speed 33 mph    
Visibility 6.6 miles    
Events Rain , Snow    
Averages and records for this station are not official NWS values.
T = Trace of Precipitation, MM = Missing Value Source: Averaged Metar Reports

Daily Weather History Graph

Daily Weather History Graph

Search for Another Location

Airport or City:

Astronomy

Nov. 11, 2019 Rise Set
Actual Time 6:40 AM CST 4:48 PM CST
Civil Twilight 6:12 AM CST 5:17 PM CST
Nautical Twilight 5:39 AM CST 5:49 PM CST
Astronomical Twilight 5:07 AM CST 6:21 PM CST
Moon 4:44 PM CST (11/11) 5:32 AM CST (11/11)
Length of Visible Light 11h 05m
Length of Day
10h 07m
Waxing Gibbous, 99% of the Moon is Illuminated
Nov 11
Waxing Gibbous
Nov 12
Full
Nov 19
Last Quarter
Nov 26
New
Dec 4
First Quarter

Hourly Weather History & Observations

Time (CST) Temp. Windchill Dew Point Humidity Pressure Visibility Wind Dir Wind Speed Gust Speed Precip Events Conditions
12:15 AM 37.4 °F 31.4 °F 33.8 °F 87% 30.12 in 10.0 mi NNE 8.1 mph - N/A   Overcast
12:35 AM 37.4 °F 32.1 °F 33.8 °F 87% 30.11 in 10.0 mi North 6.9 mph - N/A   Overcast
12:55 AM 37.4 °F 30.8 °F 33.3 °F 85% 30.12 in 10.0 mi NNE 9.2 mph - N/A   Overcast
1:15 AM 37.4 °F 31.4 °F 33.3 °F 85% 30.12 in 10.0 mi North 8.1 mph - N/A   Overcast
1:35 AM 37.4 °F 30.8 °F 33.3 °F 85% 30.12 in 10.0 mi North 9.2 mph - N/A   Overcast
1:55 AM 37.4 °F 30.3 °F 33.3 °F 85% 30.12 in 10.0 mi North 10.4 mph - N/A   Overcast
2:15 AM 37.0 °F 30.4 °F 33.4 °F 87% 30.12 in 10.0 mi North 9.2 mph - N/A   Overcast
2:35 AM 36.9 °F 29.6 °F 33.1 °F 86% 30.13 in 10.0 mi NNW 10.4 mph - N/A   Light Drizzle
2:55 AM 36.5 °F 29.2 °F 33.1 °F 87% 30.13 in 7.0 mi North 10.4 mph - N/A Rain Light Rain
3:15 AM 35.8 °F 27.3 °F 32.0 °F 86% 30.12 in 10.0 mi North 12.7 mph 17.3 mph N/A   Overcast
3:35 AM 35.2 °F 26.6 °F 32.0 °F 88% 30.10 in 10.0 mi North 12.7 mph 17.3 mph N/A   Overcast
3:55 AM 35.2 °F 26.6 °F 31.8 °F 87% 30.12 in 10.0 mi North 12.7 mph 17.3 mph N/A   Overcast
4:15 AM 35.1 °F 26.9 °F 31.8 °F 88% 30.12 in 10.0 mi North 11.5 mph - N/A   Overcast
4:35 AM 34.7 °F 25.1 °F 32.0 °F 90% 30.13 in 7.0 mi NNW 15.0 mph 19.6 mph N/A   Overcast
4:55 AM 34.2 °F 25.7 °F 32.0 °F 92% 30.14 in 7.0 mi NNW 11.5 mph - N/A   Overcast
5:15 AM 34.2 °F 25.2 °F 32.0 °F 92% 30.14 in 7.0 mi North 12.7 mph - N/A   Overcast
5:35 AM 34.0 °F 25.0 °F 32.0 °F 92% 30.15 in 5.0 mi North 12.7 mph - N/A   Light Drizzle
5:55 AM 33.4 °F 23.5 °F 32.0 °F 94% 30.13 in 5.0 mi North 15.0 mph - N/A   Drizzle
6:15 AM 33.1 °F 23.9 °F 32.0 °F 96% 30.15 in 5.0 mi North 12.7 mph - N/A   Light Drizzle
6:35 AM 33.1 °F 24.4 °F 32.0 °F 96% 30.16 in 5.0 mi North 11.5 mph - N/A   Overcast
6:55 AM 33.1 °F 23.0 °F 32.0 °F 96% 30.18 in 5.0 mi NNW 15.0 mph 18.4 mph N/A   Overcast
7:15 AM 32.9 °F 22.0 °F 32.0 °F 96% 30.18 in 5.0 mi North 17.3 mph 23.0 mph N/A   Overcast
7:35 AM 32.4 °F 20.6 °F 31.6 °F 97% 30.20 in 2.5 mi North 19.6 mph 23.0 mph N/A   Light Drizzle
7:55 AM 32.0 °F 22.1 °F 30.7 °F 95% 30.21 in 3.0 mi North 13.8 mph 25.3 mph N/A   Overcast
8:15 AM 31.3 °F 19.2 °F 29.7 °F 94% 30.23 in 3.0 mi North 19.6 mph - N/A   Overcast
8:35 AM 30.7 °F 17.2 °F 28.8 °F 92% 30.23 in 4.0 mi NNW 24.2 mph 32.2 mph N/A   Overcast
8:55 AM 29.3 °F 15.9 °F 27.3 °F 92% 30.25 in 2.5 mi North 21.9 mph 26.5 mph N/A Snow Light Snow
9:15 AM 28.6 °F 14.6 °F 26.6 °F 92% 30.25 in 1.5 mi North 23.0 mph 31.1 mph N/A Snow Light Snow
9:35 AM 27.5 °F 13.9 °F 25.5 °F 92% 30.26 in 1.2 mi North 20.7 mph 33.4 mph N/A Snow Light Snow
9:55 AM 27.5 °F 13.9 °F 25.2 °F 91% 30.26 in 1.2 mi North 20.7 mph 31.1 mph N/A Snow Light Snow
10:15 AM 27.0 °F 13.9 °F 24.4 °F 90% 30.27 in 1.2 mi North 18.4 mph 32.2 mph N/A Snow Light Snow
10:35 AM 27.1 °F 13.8 °F 25.3 °F 93% 30.28 in 1.0 mi North 19.6 mph 26.5 mph N/A Snow Light Snow
10:55 AM 26.4 °F 15.5 °F 24.4 °F 92% 30.30 in 1.0 mi North 12.7 mph 18.4 mph N/A Snow Light Snow
11:35 AM 25.9 °F 11.7 °F 24.1 °F 93% 30.30 in 0.8 mi NNW 20.7 mph - N/A Snow Light Snow
11:55 AM 24.6 °F 8.5 °F 21.6 °F 88% 30.31 in 1.2 mi North 26.5 mph 32.2 mph N/A Snow Light Snow
12:15 PM 23.9 °F 11.2 °F 21.7 °F 91% 30.31 in 1.0 mi North 15.0 mph 25.3 mph N/A Snow Light Snow
12:35 PM 23.9 °F 9.9 °F 21.7 °F 91% 30.31 in 0.8 mi North 18.4 mph - N/A Snow Light Snow
12:55 PM 23.5 °F 11.8 °F 21.6 °F 92% 30.31 in 0.8 mi NNW 12.7 mph - N/A Snow Light Snow
1:15 PM 23.0 °F 9.2 °F 21.0 °F 92% 30.31 in 0.8 mi NNW 17.3 mph - N/A Snow Light Snow
1:35 PM 22.6 °F 9.2 °F 19.9 °F 89% 30.32 in 0.8 mi NNW 16.1 mph - N/A Snow Light Snow
1:55 PM 23.0 °F 10.6 °F 20.3 °F 89% 30.33 in 1.5 mi NNW 13.8 mph - N/A Snow Light Snow
2:15 PM 22.6 °F 8.7 °F 19.9 °F 89% 30.34 in 1.2 mi NNW 17.3 mph - N/A Snow Light Snow
2:35 PM 22.5 °F 6.5 °F 20.1 °F 91% 30.34 in 0.8 mi NNW 23.0 mph 27.6 mph N/A Snow Light Snow
2:55 PM 22.1 °F 8.5 °F 19.0 °F 88% 30.34 in 1.8 mi NNW 16.1 mph 24.2 mph N/A Snow Light Snow
3:15 PM 22.5 °F 7.2 °F 18.7 °F 85% 30.35 in 10.0 mi NNW 20.7 mph 25.3 mph N/A   Overcast
3:35 PM 23.0 °F 8.7 °F 16.9 °F 77% 30.36 in 7.0 mi NNW 18.4 mph 27.6 mph N/A   Overcast
3:55 PM 23.0 °F 9.6 °F 16.2 °F 75% 30.37 in 7.0 mi NNW 16.1 mph 28.8 mph N/A   Overcast
4:15 PM 22.5 °F 6.9 °F 15.4 °F 74% 30.38 in 7.0 mi NNW 21.9 mph 29.9 mph N/A   Overcast
4:35 PM 22.1 °F 6.8 °F 14.9 °F 74% 30.38 in 10.0 mi NNW 20.7 mph 26.5 mph N/A   Overcast
4:55 PM 21.7 °F 6.7 °F 14.0 °F 72% 30.40 in 7.0 mi NNW 19.6 mph 26.5 mph N/A   Scattered Clouds
5:15 PM 21.7 °F 6.7 °F 13.6 °F 71% 30.40 in 10.0 mi NNW 19.6 mph 26.5 mph N/A   Mostly Cloudy
5:35 PM 21.2 °F 5.2 °F 13.3 °F 72% 30.41 in 10.0 mi NNW 21.9 mph 27.6 mph N/A   Mostly Cloudy
5:55 PM 20.3 °F 3.7 °F 12.0 °F 70% 30.42 in 10.0 mi NNW 23.0 mph 28.8 mph N/A   Scattered Clouds
6:35 PM 19.2 °F 5.8 °F 8.6 °F 63% 30.45 in 10.0 mi NW 13.8 mph - N/A   Clear
6:55 PM 18.5 °F 4.9 °F 8.6 °F 65% 30.46 in 10.0 mi NW 13.8 mph - N/A   Clear
7:15 PM 18.0 °F 3.6 °F 9.0 °F 68% 30.47 in 10.0 mi NW 15.0 mph 18.4 mph N/A   Clear
7:35 PM 17.2 °F 3.3 °F 8.2 °F 68% 30.47 in 10.0 mi NW 13.8 mph - N/A   Clear
7:55 PM 17.2 °F 1.7 °F 7.7 °F 66% 30.48 in 10.0 mi NW 17.3 mph - N/A   Clear
8:15 PM 17.1 °F 1.0 °F 8.2 °F 68% 30.49 in 10.0 mi NW 18.4 mph 24.2 mph N/A   Clear
8:35 PM 16.7 °F 2.6 °F 8.1 °F 69% 30.49 in 10.0 mi NW 13.8 mph - N/A   Clear
8:55 PM 16.2 °F 1.3 °F 7.9 °F 70% 30.50 in 10.0 mi NW 15.0 mph 23.0 mph N/A   Clear
9:15 PM 16.0 °F 0.6 °F 7.2 °F 68% 30.51 in 10.0 mi NW 16.1 mph 23.0 mph N/A   Clear
9:35 PM 15.6 °F 0.1 °F 6.6 °F 68% 30.52 in 10.0 mi NW 16.1 mph 25.3 mph N/A   Clear
9:55 PM 15.3 °F -1.3 °F 5.7 °F 66% 30.52 in 10.0 mi NW 18.4 mph - N/A   Clear
10:15 PM 14.7 °F -1.1 °F 5.2 °F 66% 30.53 in 10.0 mi NW 16.1 mph - N/A   Clear
10:35 PM 14.4 °F -2.0 °F 4.8 °F 66% 30.53 in 10.0 mi NW 17.3 mph 21.9 mph N/A   Clear
10:55 PM 14.0 °F -2.0 °F 4.3 °F 65% 30.53 in 10.0 mi NW 16.1 mph 21.9 mph N/A   Clear
11:15 PM 13.6 °F -3.0 °F 3.9 °F 65% 30.53 in 10.0 mi NW 17.3 mph - N/A   Clear
11:35 PM 12.9 °F -0.9 °F 3.6 °F 66% 30.53 in 10.0 mi NW 11.5 mph - N/A   Clear
11:55 PM 12.7 °F -1.8 °F 3.9 °F 68% 30.53 in 10.0 mi NW 12.7 mph - N/A   Clear